Location: Unspecified
(43.4354°N, 0.0000°E)
Time: 19:13:13
(UTC+00:00)

Vanguard 2 Rocket - All Passes

Search period start: 18 June 2019 00:00
Search period end: 28 June 2019 00:00
Orbit: 554 x 3326 km, 32.9° (Epoch: 17 June)

Date Brightness Start Highest point End Pass type
(mag) Time Alt. Az. Time Alt. Az. Time Alt. Az.
18 Jun - 01:25:31 10° WSW 01:39:41 58° S 01:59:12 10° ESE visible
18 Jun - 03:40:22 10° W 03:56:32 44° SSW 04:14:35 10° SE visible
18 Jun - 05:59:19 10° W 06:12:03 21° SW 06:24:21 10° S daylight
18 Jun - 20:06:40 10° SSE 20:11:08 14° SE 20:16:44 10° ESE visible
18 Jun - 22:14:06 10° SW 22:23:20 42° SSE 22:38:15 10° E visible
19 Jun - 00:25:52 10° WSW 00:38:20 57° S 00:57:10 10° ESE visible
19 Jun - 02:39:46 10° W 02:54:59 50° SSW 03:13:56 10° SE visible
19 Jun - 04:56:30 10° W 05:11:09 29° SW 05:26:14 10° SSE daylight
19 Jun - 21:15:55 10° SSW 21:23:32 31° SE 21:35:26 10° E visible
19 Jun - 23:26:37 10° WSW 23:37:24 54° S 23:54:47 10° E visible
20 Jun - 01:39:39 10° W 01:53:29 54° S 02:12:37 10° ESE visible
20 Jun - 03:54:55 10° W 04:09:58 36° SSW 04:26:54 10° SSE daylight
20 Jun - 06:17:10 10° WSW 06:25:02 14° SW 06:32:49 10° SSW daylight
20 Jun - 20:18:26 10° S 20:24:13 21° SE 20:32:23 10° E visible
20 Jun - 22:27:46 10° SW 22:36:57 47° SSE 22:52:15 10° E visible
21 Jun - 00:39:57 10° WSW 00:52:11 55° S 01:10:46 10° ESE visible
21 Jun - 02:54:07 10° W 03:08:37 42° SSW 03:26:41 10° SE visible
21 Jun - 05:12:20 10° W 05:24:19 21° SW 05:36:48 10° S daylight
21 Jun - 19:22:59 10° SSE 19:25:15 11° SE 19:27:51 10° ESE daylight
21 Jun - 21:29:17 10° SW 21:36:59 38° SSE 21:49:39 10° E visible
21 Jun - 23:40:38 10° WSW 23:51:14 54° S 00:08:32 10° ESE visible
22 Jun - 01:53:54 10° W 02:07:15 47° SSW 02:25:42 10° SE visible
22 Jun - 04:09:57 10° W 04:23:20 27° SW 04:38:25 10° SSE daylight
22 Jun - 20:31:17 10° SSW 20:37:31 28° SE 20:47:04 10° E visible
22 Jun - 22:41:40 10° WSW 22:50:44 51° S 23:06:06 10° E visible
23 Jun - 00:54:09 10° W 01:06:03 51° S 01:24:07 10° ESE visible
23 Jun - 03:08:46 10° W 03:22:11 34° SSW 03:38:48 10° SSE visible
23 Jun - 05:30:42 10° WSW 05:37:30 13° SW 05:44:32 10° SSW daylight
23 Jun - 19:34:05 10° S 19:38:27 17° SE 19:44:15 10° ESE daylight
23 Jun - 21:43:00 10° SW 21:50:40 43° SSE 22:03:40 10° E visible
23 Jun - 23:54:46 10° WSW 00:05:10 52° S 00:22:05 10° ESE visible
24 Jun - 02:08:20 10° W 02:21:00 39° SSW 02:38:17 10° SE visible
24 Jun - 04:26:01 10° WSW 04:36:42 19° SW 04:48:34 10° S daylight
24 Jun - 20:44:42 10° SW 20:51:03 34° SSE 21:01:22 10° E visible
24 Jun - 22:55:43 10° WSW 23:04:38 51° S 23:19:50 10° ESE visible
25 Jun - 01:08:28 10° W 01:19:56 44° SSW 01:37:05 10° SE visible
25 Jun - 03:23:58 10° W 03:35:44 25° SW 03:50:01 10° SSE visible
25 Jun - 19:46:52 10° SSW 19:51:50 23° SE 19:59:07 10° E daylight
25 Jun - 21:56:56 10° WSW 22:04:31 46° S 22:17:33 10° ESE visible
26 Jun - 00:09:01 10° W 00:19:07 47° S 00:35:22 10° SE visible
26 Jun - 02:23:07 10° W 02:34:44 31° SSW 02:50:12 10° SSE visible
26 Jun - 04:45:37 10° WSW 04:50:08 11° SW 04:54:51 10° SSW daylight
26 Jun - 18:50:01 10° S 18:52:56 14° SE 18:56:30 10° ESE daylight
26 Jun - 20:58:27 10° SW 21:04:47 39° SSE 21:15:25 10° E visible
26 Jun - 23:09:54 10° WSW 23:18:37 48° S 23:33:22 10° ESE visible
27 Jun - 01:23:00 10° W 01:33:48 36° SSW 01:49:31 10° SE visible
27 Jun - 03:40:26 10° WSW 03:49:19 17° SW 03:59:37 10° S visible
27 Jun - 20:00:15 10° SSW 20:05:27 29° SSE 20:13:29 10° E daylight
27 Jun - 22:11:02 10° WSW 22:18:28 46° S 22:31:17 10° ESE visible
